User: anonymous   Login
Location: Caltech
(34.1382°N, 118.1253°W)
Time: 04:34:53
(UTC-08:00)
Language:

Gurwin Techsat 1B - Orbit

View from above orbital plane
View from above orbital plane
View from above satellite
View from above satellite

Ground track
Ground track

The orbit data is extracted from the following two-line orbital elements,

1 25397U 98043D   17053.91417705 -.00000008  00000-0  15573-4 0  9994
2 25397 098.5985 358.7313 0001316 025.2201 334.9042 14.23615441967317
Epoch (UTC): 22 February 2017 21:56:24
Eccentricity: 0.0001316
inclination: 98.5985°
perigee height: 812 km
apogee height: 814 km
right ascension of ascending node: 358.7313°
argument of perigee: 25.2201°
revolutions per day: 14.23615441
mean anomaly at epoch: 334.9042°
orbit number at epoch: 96731

The dashed part of the orbit path shows where the satellite is in the earth's shadow,  

DLR